Regional Weather Roundup
Issued by NWS

Home | Current Version | Previous Version | Text Only | Print | Product List | Glossary On
Versions: 1 2 3 4 5 6 7 8 9 10 11 12 13 14 15 16 17 18 19 20 21 22 23 24 25 26 27 28 29 30 31 32 33 34 35 36 37 38 39 40 41 42 43 44 45 46 47 48 49 50
000
ASUS43 KMKX 241000
RWRWI

WISCONSIN REGIONAL WEATHER ROUNDUP
NATIONAL WEATHER SERVICE MILWAUKEE/SULLIVAN WI
500 AM CDT MON JUL 24 2017

NOTE: "FAIR" INDICATES FEW OR NO CLOUDS BELOW 12,000 FEET WITH NO
SIGNIFICANT WEATHER AND/OR OBSTRUCTIONS TO VISIBILITY.

WIZ001-002-006>008-014>016-023>028-241100-
NORTHWEST WISCONSIN

CITY           SKY/WX    TMP DP  RH WIND       PRES   REMARKS
SUPERIOR ARPT  NOT AVBL
ASHLAND        CLOUDY    56  55  97 CALM      30.08S FOG
HAYWARD        FOG       52  51  97 N5        30.09R VSB 1/4
SIREN          FOG       52  51  98 CALM      30.08R VSB 1/4
CUMBERLAND     CLEAR     52  50  93 N3        30.08R
RICE LAKE      FOG       53  52  97 CALM      30.08R VSB 1
CHETEK         PTCLDY    53  52  99 CALM      30.07R
LADYSMITH      CLOUDY    55  54  97 CALM      30.08R FOG
EAU CLAIRE     NOT AVBL
MENOMONIE      CLEAR     56  55  97 CALM      30.06R
NEW RICHMOND   CLEAR     53  53  99 CALM      30.06S FOG
OSCEOLA        PTCLDY    53  53 100 CALM      30.09R FOG
$$

WIZ003>005-009-010-017-018-241100-
NORTH CENTRAL WISCONSIN

CITY           SKY/WX    TMP DP  RH WIND       PRES   REMARKS
MANITOWISH WTR CLOUDY    52  52 100 NE6       30.08R FOG
ARBOR VITAE    MOCLDY    55  53  95 CALM      30.08R
WOODRUFF       MOCLDY    55  53  95 CALM      30.08R
RHINELANDER    CLOUDY    52  52 100 N5        30.08R
EAGLE RIVER    FOG       50  50 100 CALM      30.08R VSB 1/4
LAND O LAKES   FOG       50  50 100 CALM      30.10R VSB 1/4
PHILLIPS       CLOUDY    50  50 100 NE7       30.07R FOG
TOMAHAWK         N/A     52  51  97 CALM      30.07R
MEDFORD        CLEAR     51  50  98 NE6       30.05R
MERRILL        NOT AVBL
$$

WIZ029-030-035-036-043>047-241100-
CENTRAL WISCONSIN

CITY           SKY/WX    TMP DP  RH WIND       PRES   REMARKS
WAUSAU         NOT AVBL
MOSINEE        CLOUDY    54  54 100 NE8       30.06R
MARSHFIELD     MOCLDY    56  53  90 E8        30.04R
STEVENS POINT  CLOUDY    57  53  88 NE9       30.05R
WAUPACA        CLOUDY    62  56  81 N5        30.03R
WAUTOMA        NOT AVBL
WISC RAPIDS    NOT AVBL
CAMP DOUGLAS   NOT AVBL
$$

WIZ011>013-019>022-031-037>040-048>050-241100-
NORTHEAST WISCONSIN

CITY           SKY/WX    TMP DP  RH WIND       PRES   REMARKS
ANTIGO         CLOUDY    54  53  97 NE7       30.06S
SHAWANO        CLOUDY    61  55  81 N8        30.04R
OCONTO         CLOUDY    59  55  86 N5        30.03R
STURGEON BAY   NOT AVBL
GREEN BAY      CLOUDY    61  58  90 N10       30.03R
MANITOWOC      NOT AVBL
APPLETON       CLOUDY    59  52  77 N8        30.01R
CLINTONVILLE   CLOUDY    61  54  77 N5        30.03R
OSHKOSH        LGT RAIN  60  57  89 N9        30.01R
$$

WIZ032>034-041-042-053>061-241100-
SOUTHWEST WISCONSIN

CITY           SKY/WX    TMP DP  RH WIND       PRES   REMARKS
LA CROSSE      CLEAR     63  57  81 N5        30.02R
SPARTA         CLEAR     54  53  97 NE5       30.04R
VIROQUA        CLEAR     58  58 100 CALM      30.02S
BOSCOBEL       CLEAR     60  57  89 CALM      30.01R
PRAIRIE DU CHI CLOUDY    63  57  81 CALM      30.00R
PLATTEVILLE    CLEAR     60  60 100 NE6       30.01R
$$

WIZ056-057-062-063-064-067-068-241100-
SOUTH CENTRAL WISCONSIN

CITY           SKY/WX    TMP DP  RH WIND       PRES   REMARKS
REEDSBURG      CLOUDY    61  56  85 NE9       30.02R
BARABOO/DELLS  CLOUDY    61  54  77 NE5       30.02S
LONE ROCK      NOT AVBL
MINERAL POINT  CLEAR     59  59 100 N3        30.01R
MADISON        CLOUDY    60  57  89 N7        30.00R
MIDDLETON      CLEAR     59  58  98 N3        30.01R
WATERTOWN      CLOUDY    63  58  85 N5        29.99R
MONROE         CLEAR     59  57  94 NE3       29.99R
JANESVILLE     CLEAR     63  59  88 NE6       29.97R
$$

WIZ051-052-058>065-066-070>072-241100-
SOUTHEAST WISCONSIN

CITY           SKY/WX    TMP DP  RH WIND       PRES   REMARKS
MILWAUKEE      CLOUDY    65  60  84 N12       29.97R
WAUKESHA       MOCLDY    59  55  88 N3        29.99R
MILWAUKEE/TIMM CLOUDY    61  55  82 N6        29.99R
RACINE         MOCLDY    65  62  90 N15G21    29.98R
KENOSHA        MOCLDY    62  58  86 NW5       29.97R
FOND DU LAC    CLOUDY    64  56  75 NE12      30.01R
SHEBOYGAN      NOT AVBL
WEST BEND      CLOUDY    61  59  94 N5        30.00R
JUNEAU         CLOUDY    62  58  86 NW5       30.01R
$$

LSZ147-162-241100-
LAKE SUPERIOR

STATION/POSITION TIME  TEMP    WIND        PRES    WAVE
                       AIR SEA DIR/SP/G            HT/PER
                 (UTC) (F)     (DEG/KT/KT) (MB)    (FT/S)
W MID LAKE BUOY  0850   49 48  240/  6/  6 1018.2R   1
DEVILS ISLAND    0900   54     210/  4/  5 1018.4R
SAXON HARBOR     0930   55     160/  3/  4 1018.3R
$$

LMZ867-665-643>646-241100-
LAKE MICHIGAN

STATION/POSITION TIME  TEMP    WIND        PRES    WAVE
                       AIR SEA DIR/SP/G            HT/PER
                 (UTC) (F)     (DEG/KT/KT) (MB)    (FT/S)
CHAMBERS ISLAND  0940   61     340/ 13/ 16 1015.9R
S GREEN BAY BUOY 0930   63 72  360/ 16/ 17 1016.0R
N MID LAKE BUOY  0850   62 66   50/ 14/ 16 1015.6R   4/ 5
NORTHPORT PIER   0940   62     360/  9/ 11 1016.6R
KEWAUNEE LAKESHO 0930   62     360/  6/ 12 1014.9R
SHEBOYGAN LAKESH 0900   64      10/ 22/ 25 1014.3R
PORT WASHINGTON  0940   64     330/  6/ 11 1015.9R
ATWATER BUOY     0839   65 67   10/ 16/ 19 1014.2R
MILWAUKEE LAKESH 0930   65     350/  8/ 10   N/A
S MID LAKE BUOY  0850   66 70  360/ 16/ 19 1012.9R   5/ 6
KENOSHA   LAKESH 0900   66     350/ 11/ 16 1013.9
$$

TC  - TEMPERATURE IN CELSIUS
VSB - VISIBILITY IN STATUTE MILES
WCI - WIND CHILL INDEX
HX  - HEAT INDEX





USA.gov is the U.S. government's official web portal to all federal, state and local government web resources and services.